Location: Lake Almanor
(40.2485°N, 121.1442°W)
Time: 00:02:58
(UTC-08:00)

STARLINK-1080 - Pass Details

Date: 30 January 2020
Orbit: 348 x 351 km, 53.0° (Epoch: 23 February)

Event Time Altitude Azimuth Distance (km) Brightness Sun altitude
Rises 19:23:13 0° 307° (NW) 2,162 7.4 -23.5°
Reaches altitude 10° 19:25:14 10° 304° (NW) 1,316 6.2 -23.9°
Enters shadow 19:26:24 21° 300° (WNW) 847 5.2 -24.2°
